When you browse on this site, cookies collect data to enhance your experience and personalize the content and advertising you see.
Visit our Privacy Policy to learn more. By continuing to use the site, you agree to this use of cookies and data.
  • Em Portugal
  • Lista de países
  • Para 7 dias
  • Temperatura da água
  • Mapa do tempo
  • Widgets de tempo
  • user-avatar
    Iniciar Sessão

    Previsão horária em Mylohovo

    Hoje, 26 Agosto, Segunda-feira

    Tempo Temperatura Precipitação Vento Pressão Humidade
    00:00 +12°C° 0 mm 1 m/s 748 mmHg 88%
    01:00 +11°C° 0 mm 1 m/s 748 mmHg 89%
    02:00 +11°C° 0 mm 1 m/s 749 mmHg 90%
    03:00 +11°C° 0 mm 1 m/s 748 mmHg 91%
    04:00 +11°C° 0 mm 1 m/s 748 mmHg 93%
    05:00 +10°C° 0 mm 1 m/s 748 mmHg 94%
    06:00 +12°C° 0 mm 1 m/s 748 mmHg 87%
    07:00 +14°C° 0 mm 2 m/s 748 mmHg 81%
    08:00 +16°C° 0 mm 2 m/s 748 mmHg 74%
    09:00 +18°C° 0 mm 2 m/s 748 mmHg 69%
    10:00 +19°C° 0 mm 2 m/s 747 mmHg 64%
    11:00 +21°C° 0 mm 2 m/s 747 mmHg 59%
    12:00 +22°C° 0 mm 3 m/s 747 mmHg 58%
    13:00 +22°C° 0 mm 3 m/s 747 mmHg 57%
    14:00 +24°C° 0 mm 3 m/s 746 mmHg 56%
    15:00 +22°C° 0 mm 3 m/s 746 mmHg 62%
    16:00 +21°C° 0 mm 2 m/s 745 mmHg 67%
    17:00 +21°C° 0 mm 2 m/s 745 mmHg 72%
    18:00 +19°C° 0 mm 2 m/s 745 mmHg 76%
    19:00 +18°C° 0 mm 2 m/s 745 mmHg 81%
    20:00 +17°C° 0 mm 2 m/s 744 mmHg 85%
    21:00 +16°C° 0 mm 2 m/s 744 mmHg 88%
    22:00 +16°C° 0 mm 2 m/s 744 mmHg 91%
    23:00 +16°C° 0 mm 2 m/s 744 mmHg 94%

    Amanhã, 27 Agosto, Terça-feira

    Tempo Temperatura Precipitação Vento Pressão Humidade
    00:00 +15°C° 0 mm 2 m/s 744 mmHg 95%
    01:00 +15°C° 0 mm 2 m/s 744 mmHg 96%
    02:00 +15°C° 0 mm 2 m/s 744 mmHg 97%
    03:00 +14°C° 0 mm 2 m/s 744 mmHg 97%
    04:00 +14°C° 0 mm 2 m/s 744 mmHg 98%
    05:00 +13°C° 0 mm 2 m/s 744 mmHg 98%
    06:00 +15°C° 0 mm 2 m/s 744 mmHg 94%
    07:00 +16°C° 0 mm 2 m/s 745 mmHg 90%
    08:00 +17°C° 0 mm 2 m/s 745 mmHg 87%
    09:00 +18°C° 0 mm 3 m/s 745 mmHg 78%
    10:00 +19°C° 0 mm 3 m/s 745 mmHg 70%
    11:00 +21°C° 0 mm 4 m/s 745 mmHg 61%
    12:00 +21°C° 0 mm 4 m/s 745 mmHg 58%
    13:00 +21°C° 0 mm 4 m/s 745 mmHg 54%
    14:00 +21°C° 0 mm 3 m/s 746 mmHg 51%
    15:00 +21°C° 0 mm 3 m/s 746 mmHg 55%
    16:00 +20°C° 0 mm 3 m/s 745 mmHg 59%
    17:00 +19°C° 0 mm 2 m/s 745 mmHg 64%
    18:00 +18°C° 0 mm 2 m/s 746 mmHg 70%
    19:00 +16°C° 0 mm 2 m/s 746 mmHg 77%
    20:00 +14°C° 0 mm 2 m/s 746 mmHg 84%
    21:00 +13°C° 0 mm 1 m/s 746 mmHg 87%
    22:00 +13°C° 0 mm 1 m/s 747 mmHg 89%
    23:00 +12°C° 0 mm 1 m/s 747 mmHg 92%

    Depois de amanhã, 28 Agosto, Quarta-feira

    Tempo Temperatura Precipitação Vento Pressão Humidade
    00:00 +12°C° 0 mm 1 m/s 747 mmHg 93%
    01:00 +11°C° 0 mm 1 m/s 747 mmHg 94%
    02:00 +11°C° 0 mm 1 m/s 748 mmHg 95%
    03:00 +10°C° 0 mm 1 m/s 748 mmHg 95%
    04:00 +10°C° 0 mm 1 m/s 748 mmHg 94%
    05:00 +10°C° 0 mm 1 m/s 748 mmHg 94%
    06:00 +12°C° 0 mm 1 m/s 748 mmHg 85%
    07:00 +13°C° 0 mm 1 m/s 749 mmHg 76%
    08:00 +15°C° 0 mm 1 m/s 749 mmHg 67%
    09:00 +16°C° 0 mm 1 m/s 749 mmHg 61%
    10:00 +19°C° 0 mm 1 m/s 749 mmHg 56%
    11:00 +20°C° 0 mm 1 m/s 749 mmHg 50%
    12:00 +20°C° 0 mm 1 m/s 749 mmHg 50%
    13:00 +21°C° 0 mm 1 m/s 749 mmHg 49%
    14:00 +22°C° 0 mm 1 m/s 749 mmHg 48%
    15:00 +21°C° 0 mm 1 m/s 749 mmHg 54%
    16:00 +20°C° 0 mm 1 m/s 748 mmHg 59%
    17:00 +20°C° 0 mm 1 m/s 748 mmHg 65%
    18:00 +18°C° 0 mm 1 m/s 748 mmHg 70%
    19:00 +15°C° 0 mm 1 m/s 748 mmHg 75%
    20:00 +14°C° 0 mm 1 m/s 748 mmHg 80%
    21:00 +13°C° 0 mm 1 m/s 748 mmHg 81%
    22:00 +12°C° 0 mm 1 m/s 748 mmHg 83%
    23:00 +12°C° 0 mm 1 m/s 748 mmHg 84%

    29 Agosto, Quinta-feira

    Tempo Temperatura Precipitação Vento Pressão Humidade
    00:00 +11°C° 0 mm 1 m/s 749 mmHg 84%
    01:00 +10°C° 0 mm 2 m/s 749 mmHg 84%
    02:00 +9°C° 0 mm 2 m/s 749 mmHg 84%
    03:00 +9°C° 0 mm 2 m/s 749 mmHg 83%
    04:00 +9°C° 0 mm 2 m/s 749 mmHg 81%
    05:00 +8°C° 0 mm 2 m/s 749 mmHg 80%
    06:00 +10°C° 0 mm 2 m/s 749 mmHg 73%
    07:00 +13°C° 0 mm 2 m/s 749 mmHg 66%
    08:00 +14°C° 0 mm 1 m/s 748 mmHg 60%
    09:00 +16°C° 0 mm 2 m/s 748 mmHg 54%
    10:00 +17°C° 0 mm 2 m/s 748 mmHg 47%
    11:00 +19°C° 0 mm 2 m/s 748 mmHg 41%
    12:00 +20°C° 0 mm 2 m/s 748 mmHg 42%
    13:00 +20°C° 0 mm 2 m/s 748 mmHg 42%
    14:00 +21°C° 0 mm 2 m/s 747 mmHg 43%
    15:00 +20°C° 0 mm 2 m/s 747 mmHg 49%
    16:00 +21°C° 0 mm 1 m/s 747 mmHg 54%
    17:00 +21°C° 0 mm 1 m/s 746 mmHg 60%
    18:00 +19°C° 0 mm 1 m/s 746 mmHg 65%
    19:00 +15°C° 0 mm 1 m/s 746 mmHg 71%
    20:00 +13°C° 0 mm 1 m/s 746 mmHg 76%
    21:00 +13°C° 0 mm 1 m/s 746 mmHg 78%
    22:00 +12°C° 0 mm 1 m/s 745 mmHg 80%
    23:00 +11°C° 0 mm 1 m/s 745 mmHg 81%

    30 Agosto, Sexta-feira

    Tempo Temperatura Precipitação Vento Pressão Humidade
    00:00 +11°C° 0 mm 1 m/s 745 mmHg 82%
    01:00 +10°C° 0 mm 2 m/s 745 mmHg 82%
    02:00 +9°C° 0 mm 2 m/s 745 mmHg 83%
    03:00 +9°C° 0 mm 2 m/s 745 mmHg 84%
    04:00 +8°C° 0 mm 2 m/s 745 mmHg 85%
    05:00 +9°C° 0 mm 1 m/s 744 mmHg 86%
    06:00 +10°C° 0 mm 2 m/s 744 mmHg 80%
    07:00 +13°C° 0 mm 2 m/s 744 mmHg 73%
    08:00 +14°C° 0 mm 2 m/s 744 mmHg 67%
    09:00 +16°C° 0 mm 2 m/s 744 mmHg 61%
    10:00 +18°C° 0 mm 2 m/s 744 mmHg 55%
    11:00 +19°C° 0 mm 2 m/s 744 mmHg 49%
    12:00 +20°C° 0 mm 2 m/s 744 mmHg 48%
    13:00 +20°C° 0 mm 3 m/s 744 mmHg 47%
    14:00 +21°C° 0 mm 3 m/s 744 mmHg 46%
    15:00 +21°C° 0 mm 2 m/s 744 mmHg 52%
    16:00 +20°C° 0 mm 2 m/s 743 mmHg 58%
    17:00 +21°C° 0 mm 1 m/s 743 mmHg 63%
    18:00 +18°C° 0 mm 2 m/s 743 mmHg 69%
    19:00 +16°C° 0 mm 2 m/s 743 mmHg 74%
    20:00 +14°C° 0 mm 2 m/s 743 mmHg 80%
    21:00 +14°C° 0 mm 2 m/s 743 mmHg 81%
    22:00 +13°C° 0 mm 2 m/s 743 mmHg 83%
    23:00 +13°C° 0 mm 2 m/s 743 mmHg 85%

    31 Agosto, Sábado

    Tempo Temperatura Precipitação Vento Pressão Humidade
    00:00 +12°C° 0 mm 2 m/s 743 mmHg 87%
    01:00 +12°C° 0 mm 2 m/s 743 mmHg 89%
    02:00 +10°C° 0 mm 2 m/s 742 mmHg 91%
    03:00 +10°C° 0 mm 2 m/s 742 mmHg 89%
    04:00 +10°C° 0 mm 2 m/s 742 mmHg 88%
    05:00 +12°C° 0 mm 2 m/s 742 mmHg 87%
    06:00 +13°C° 0 mm 2 m/s 742 mmHg 82%
    07:00 +14°C° 0 mm 2 m/s 742 mmHg 77%
    08:00 +15°C° 0 mm 2 m/s 742 mmHg 72%
    09:00 +17°C° 0 mm 2 m/s 742 mmHg 68%
    10:00 +19°C° 0 mm 2 m/s 742 mmHg 63%
    11:00 +20°C° 0 mm 2 m/s 742 mmHg 59%
    12:00 +21°C° 0 mm 3 m/s 742 mmHg 57%
    13:00 +22°C° 0 mm 3 m/s 741 mmHg 56%
    14:00 +24°C° 0 mm 3 m/s 741 mmHg 55%
    15:00 +22°C° 0.1 mm 3 m/s 741 mmHg 60%
    16:00 +21°C° 0.1 mm 2 m/s 741 mmHg 65%
    17:00 +21°C° 0.1 mm 2 m/s 740 mmHg 70%
    18:00 +19°C° 0 mm 2 m/s 740 mmHg 76%
    19:00 +18°C° 0 mm 2 m/s 740 mmHg 82%
    20:00 +16°C° 0 mm 2 m/s 740 mmHg 88%
    21:00 +16°C° 0 mm 2 m/s 740 mmHg 89%
    22:00 +15°C° 0 mm 2 m/s 740 mmHg 90%
    23:00 +15°C° 0 mm 2 m/s 740 mmHg 91%
    Mostrar mais